Wind_Speed
98 101 104 109 115 117 124 129 127 138 123 116 111 106 102 102 102 107 114 122 121 120 112 114 114 116 115 114 110 108 115 120 122 119 116 122 116 116 103 107 105 105 105
105 107 113 118 122 128 132 138 133 133 121 115 111 108 103 102 104 114 114 113 116 119 108 101 108 117 118 120 120 117 113 115 126 125 125 124 124 123 117 109 111 113 107
111 117 122 128 132 137 140 139 143 135 123 114 109 103 100 97 97 101 105 104 108 111 109 101 92 91 99 107 111 117 122 121 119 124 125 128 127 130 129 120 117 118 116
120 127 131 137 141 145 150 144 151 126 112 105 100 93 88 85 83 87 88 93 96 96 97 93 88 82 80 85 94 102 106 111 116 120 122 127 133 131 133 135 127 123 122
131 134 138 142 147 151 154 158 128 112 103 94 89 85 80 78 77 80 77 81 85 86 86 79 79 80 74 75 79 87 91 93 96 102 123 126 127 131 135 134 133 135 133
134 142 146 151 155 159 148 139 113 102 94 86 83 79 76 74 75 74 69 72 75 77 76 73 71 68 69 70 72 73 77 80 85 90 101 112 123 125 130 139 138 137 141
141 146 150 154 157 151 147 113 101 92 84 79 74 70 70 67 68 66 67 64 66 67 67 67 65 64 65 65 64 65 70 73 76 81 84 91 100 111 121 127 141 143 143
146 150 157 155 157 163 118 102 91 84 78 74 71 67 65 62 62 57 60 61 59 58 55 56 58 60 60 60 64 64 65 66 66 68 71 74 82 91 103 118 127 138 142
148 154 163 158 158 132 103 92 84 79 74 71 68 64 62 59 56 52 51 54 55 53 49 52 54 55 55 58 59 61 59 57 59 62 63 64 66 73 84 96 109 124 132
154 161 162 163 153 111 96 87 80 74 70 67 65 60 56 53 51 48 46 47 48 47 46 48 50 50 52 54 56 57 54 56 57 58 57 54 59 64 70 76 85 98 115
161 165 168 153 130 101 90 82 75 71 67 63 60 55 53 48 46 46 43 41 42 42 43 44 45 47 49 52 54 52 52 51 54 54 52 52 53 57 62 65 70 75 82
166 165 161 157 116 99 86 77 72 67 63 59 54 51 48 46 42 40 39 37 38 40 39 39 42 46 47 49 50 51 51 50 51 51 49 49 49 49 50 54 57 63 67
166 163 160 130 110 94 80 74 69 62 58 53 48 47 45 42 38 37 37 34 36 37 35 36 40 43 45 48 50 52 50 50 50 49 45 44 43 43 43 46 48 51 54
158 156 157 119 103 87 74 70 65 58 53 48 46 44 43 40 36 34 34 32 33 33 32 34 37 41 45 47 49 50 48 48 49 48 46 46 45 46 43 43 45 47 52
161 162 126 106 93 81 72 65 60 53 50 47 45 43 39 38 35 33 30 29 31 30 31 33 36 41 45 47 48 48 45 48 49 50 48 46 47 47 43 42 44 46 52
159 125 104 94 83 74 67 63 54 49 47 44 43 41 38 34 31 30 29 28 29 29 30 33 35 40 44 46 46 45 43 47 48 50 49 48 49 47 45 44 44 45 49
124 101 91 83 75 68 62 57 53 48 43 43 42 39 35 32 28 27 26 26 26 28 30 31 34 38 39 43 46 42 40 40 47 47 52 53 51 50 48 48 50 52 52
99 88 80 75 69 63 59 54 48 46 47 42 37 36 33 30 26 24 24 24 25 26 28 28 33 36 38 43 46 40 38 38 44 50 50 53 57 56 56 56 58 58 59
86 79 72 67 62 57 55 50 46 43 42 41 38 35 33 29 26 23 22 23 23 24 26 28 33 36 38 41 45 41 36 34 35 43 50 53 56 60 62 62 63 66 66
77 71 65 61 58 54 51 47 44 40 41 39 37 34 32 29 26 24 22 22 22 22 24 27 31 35 37 39 43 41 37 31 34 36 42 48 51 53 59 64 68 69 72
72 67 62 59 55 51 48 47 43 39 39 37 35 32 30 28 25 24 23 20 21 22 23 25 29 33 33 34 38 37 37 37 36 35 36 40 46 56 58 60 64 68 72
64 62 60 57 55 51 45 43 43 39 36 37 34 32 29 27 25 23 22 22 20 21 22 24 27 30 29 30 31 33 35 36 37 37 39 41 44 48 54 58 62 67 71
57 55 55 55 51 48 45 41 41 40 36 36 34 32 27 27 25 23 21 20 19 19 21 22 24 26 27 29 30 31 35 37 39 40 42 44 47 49 49 51 54 57 57
52 49 49 52 51 46 44 40 40 39 37 33 33 32 29 27 25 23 21 20 19 19 19 20 22 24 26 28 31 33 35 37 40 43 45 45 46 47 47 48 50 52 54
56 51 47 47 48 46 43 41 38 38 37 34 31 32 30 29 25 24 22 20 19 19 19 19 20 22 24 26 28 30 31 32 35 38 40 41 43 44 44 45 47 48 50
54 54 50 47 47 46 41 42 38 37 36 35 32 31 30 29 28 24 23 22 21 20 20 20 20 20 20 22 24 26 28 29 30 31 33 34 35 36 38 39 41 43 45
Wind_Direction
304 305 307 309 309 312 310 313 317 318 313 307 302 298 295 290 286 282 279 276 272 269 264 262 260 258 256 255 252 248 244 239 234 233 232 231 231 232 232 232 230 234 239
309 310 310 311 313 313 316 318 316 316 308 305 300 295 289 284 280 277 275 275 276 277 273 265 261 259 257 254 252 248 245 243 239 234 233 231 230 231 231 233 231 231 235
310 312 312 314 314 317 317 319 318 315 309 303 297 291 287 283 279 276 275 273 272 274 275 276 272 265 261 259 259 255 251 246 242 237 235 233 232 229 231 234 232 233 233
313 314 315 316 317 318 319 319 319 310 304 299 296 291 288 284 281 276 274 272 271 271 273 275 275 270 262 257 254 254 254 252 249 242 237 234 232 232 232 233 235 234 235
314 315 315 316 318 320 320 320 313 309 304 301 297 294 293 288 284 280 277 274 274 273 273 271 270 268 265 260 255 253 254 254 251 246 242 239 234 233 233 232 235 234 235
315 316 316 319 319 317 319 318 311 308 304 301 298 297 294 290 287 285 281 276 272 271 273 272 269 267 264 261 257 255 253 251 249 246 243 242 241 237 235 235 233 234 235
316 316 318 318 320 322 321 314 310 307 304 301 299 298 294 290 285 283 279 274 270 269 268 269 267 264 262 261 259 255 253 252 250 247 246 244 242 239 237 236 236 235 236
316 318 318 321 322 323 317 313 310 308 307 305 303 300 296 290 284 283 280 279 274 272 268 265 262 260 260 258 256 256 253 251 250 250 248 246 245 242 239 237 236 237 238
316 318 320 322 323 321 316 313 311 311 310 306 303 299 296 291 286 284 278 275 274 270 265 260 259 257 256 256 255 255 254 253 250 249 247 245 243 241 240 239 238 237 239
317 319 320 322 323 318 317 314 313 314 310 305 302 298 296 293 290 285 278 271 268 267 264 259 256 254 254 253 253 253 251 248 249 249 248 246 245 243 241 240 240 239 239
317 318 320 321 321 318 318 314 315 313 309 304 301 299 297 293 288 284 279 272 268 263 260 257 254 251 250 251 251 251 249 245 246 248 247 243 244 243 243 241 240 243 244
317 319 322 323 319 319 317 316 315 311 308 305 301 299 297 293 290 284 280 274 268 263 260 256 253 250 248 248 248 246 245 241 240 244 245 246 243 243 244 245 246 245 245
317 321 323 321 318 318 317 317 313 310 308 305 304 303 299 295 291 285 279 272 267 263 260 253 250 248 247 246 246 246 243 242 238 239 238 240 239 241 241 242 244 244 245
318 321 322 317 316 317 317 316 313 310 309 307 306 303 299 296 291 284 279 272 267 264 259 251 247 247 245 246 245 247 243 239 237 237 231 232 233 239 240 241 241 238 237
318 318 316 315 314 315 316 314 311 310 310 308 306 304 300 295 291 286 279 272 268 264 257 250 248 246 245 246 246 249 245 240 237 235 234 231 232 237 238 239 240 238 233
318 316 314 313 313 314 314 312 310 311 311 307 305 304 300 293 290 284 280 274 269 262 255 248 246 246 246 248 249 251 248 241 241 237 236 233 234 235 236 239 241 243 242
314 313 312 311 311 312 311 310 310 311 311 306 306 304 297 293 288 282 278 273 268 260 253 248 244 246 248 247 252 255 252 244 236 236 236 236 237 234 234 238 241 242 243
310 310 309 309 310 310 309 307 308 311 310 308 304 300 296 294 290 283 278 273 266 261 255 250 243 245 244 245 251 256 254 246 240 239 239 239 240 238 237 237 238 240 242
309 308 308 308 308 308 306 304 306 308 306 303 303 300 297 294 291 288 282 276 269 260 254 248 244 243 242 243 249 255 257 252 244 240 240 241 240 242 242 240 239 242 244
307 307 307 306 307 306 304 303 303 304 304 301 299 298 295 292 291 289 284 276 269 259 250 245 242 244 244 242 246 251 256 256 252 247 244 245 245 246 248 246 247 249 248
305 304 304 304 304 306 304 301 301 301 303 299 296 294 292 288 288 285 282 274 267 261 253 247 245 244 246 245 244 248 249 250 251 249 246 248 249 251 253 254 254 256 258
302 302 302 300 300 302 303 301 299 298 300 299 293 291 289 284 282 279 277 275 267 259 254 249 247 249 246 240 239 240 243 246 246 247 248 248 248 250 250 251 254 256 259
299 298 297 297 298 297 299 300 298 296 296 296 293 289 285 281 276 272 269 269 269 263 254 251 247 245 242 240 238 236 237 240 241 242 246 248 248 249 253 256 258 258 261
296 295 294 294 295 296 295 294 296 294 292 294 291 286 281 277 275 271 268 265 263 261 256 249 245 242 240 238 240 239 239 238 239 241 245 249 253 256 259 261 262 263 265
296 293 292 290 290 291 291 290 290 290 290 289 289 283 280 274 271 268 266 263 261 260 258 255 248 244 242 240 239 241 244 244 245 246 250 253 255 256 259 262 263 266 268
292 291 290 288 287 287 287 287 286 285 286 285 284 282 277 273 270 263 260 260 259 256 253 250 251 251 249 247 246 247 248 249 250 252 253 255 256 257 260 264 266 268 270
Height
10568 10559 10549 10537 10526 10513 10502 10482 10464 10448 10425 10407 10388 10374 10365 10354 10343 10332 10317 10300 10300 10303 10320 10322 10326 10325 10333 10340 10350 10360 10367 10370 10380 10397 10408 10418 10432 10440 10453 10460 10467 10470 10479
10541 10531 10519 10506 10490 10480 10462 10440 10417 10401 10381 10363 10345 10330 10319 10311 10301 10279 10275 10272 10262 10251 10261 10278 10282 10281 10289 10296 10301 10314 10325 10335 10343 10360 10368 10382 10400 10409 10422 10428 10439 10442 10453
10511 10498 10486 10470 10455 10435 10416 10396 10374 10350 10332 10317 10300 10288 10275 10268 10260 10248 10237 10238 10230 10221 10220 10226 10239 10247 10253 10259 10265 10275 10281 10292 10299 10316 10332 10346 10362 10378 10391 10397 10409 10416 10424
10482 10467 10451 10435 10416 10396 10375 10353 10332 10312 10294 10274 10258 10248 10239 10229 10223 10213 10209 10199 10197 10195 10192 10195 10202 10210 10216 10223 10227 10232 10241 10252 10265 10277 10290 10306 10322 10345 10357 10367 10379 10391 10398
10448 10434 10419 10401 10381 10358 10338 10315 10287 10270 10255 10242 10226 10213 10205 10196 10189 10181 10181 10172 10165 10163 10168 10174 10175 10178 10186 10191 10197 10203 10211 10218 10227 10239 10253 10268 10288 10311 10327 10339 10344 10355 10363
10417 10401 10385 10366 10349 10328 10300 10273 10250 10236 10222 10209 10195 10184 10174 10167 10160 10154 10152 10149 10144 10141 10141 10145 10150 10154 10158 10164 10170 10178 10182 10187 10196 10204 10217 10236 10258 10279 10289 10304 10310 10319 10333
10388 10370 10352 10335 10312 10282 10262 10238 10220 10207 10194 10181 10170 10161 10151 10144 10137 10131 10127 10128 10126 10126 10128 10129 10130 10133 10137 10142 10147 10152 10157 10163 10171 10179 10191 10205 10221 10241 10260 10271 10282 10290 10299
10360 10342 10322 10298 10276 10257 10229 10212 10194 10180 10167 10154 10145 10138 10131 10124 10117 10114 10105 10102 10104 10104 10106 10108 10111 10113 10118 10122 10124 10132 10138 10144 10153 10164 10174 10183 10193 10209 10224 10238 10250 10260 10274
10332 10312 10292 10270 10248 10222 10203 10185 10170 10157 10143 10132 10124 10118 10111 10105 10100 10098 10094 10089 10085 10085 10089 10092 10094 10098 10102 10104 10110 10115 10123 10130 10137 10145 10153 10164 10174 10183 10193 10207 10222 10234 10243
10306 10286 10265 10243 10221 10198 10179 10162 10148 10135 10124 10114 10105 10100 10094 10088 10082 10080 10078 10075 10071 10070 10072 10074 10079 10084 10087 10091 10096 10101 10111 10116 10122 10129 10138 10149 10155 10162 10172 10183 10192 10203 10215
10277 10258 10237 10212 10191 10172 10158 10142 10128 10117 10108 10098 10090 10083 10077 10074 10068 10064 10062 10061 10059 10059 10061 10063 10067 10070 10073 10079 10082 10091 10099 10104 10109 10115 10124 10132 10139 10145 10153 10163 10172 10179 10185
10251 10231 10211 10188 10164 10151 10138 10122 10110 10101 10091 10083 10075 10069 10063 10058 10054 10050 10048 10048 10046 10046 10049 10052 10055 10056 10062 10067 10071 10078 10085 10092 10097 10103 10110 10117 10125 10133 10140 10147 10153 10160 10166
10226 10207 10184 10162 10146 10133 10120 10105 10095 10086 10077 10069 10063 10056 10050 10046 10043 10039 10036 10036 10035 10036 10039 10041 10043 10046 10051 10056 10060 10066 10075 10082 10087 10094 10101 10107 10113 10120 10127 10133 10139 10146 10152
10197 10178 10163 10145 10127 10116 10104 10093 10081 10072 10063 10057 10051 10045 10039 10035 10032 10030 10027 10026 10026 10027 10029 10031 10034 10037 10041 10044 10049 10055 10064 10071 10077 10083 10090 10096 10103 10110 10117 10123 10129 10135 10141
10175 10157 10140 10126 10113 10100 10088 10080 10069 10060 10052 10044 10039 10035 10030 10025 10023 10019 10018 10018 10017 10018 10019 10021 10024 10027 10029 10033 10039 10045 10055 10061 10067 10072 10079 10087 10094 10100 10107 10113 10119 10124 10130
10150 10130 10118 10107 10097 10085 10075 10064 10058 10048 10040 10034 10029 10025 10020 10017 10013 10011 10009 10009 10008 10009 10010 10012 10014 10017 10019 10023 10029 10035 10045 10051 10057 10064 10072 10078 10084 10091 10097 10103 10109 10113 10118
10127 10114 10100 10090 10081 10072 10062 10054 10043 10034 10032 10025 10019 10016 10012 10008 10005 10003 10001 10000 10000 10000 10001 10004 10006 10008 10011 10015 10017 10025 10036 10044 10051 10057 10061 10068 10074 10081 10087 10093 10098 10102 10106
10108 10096 10085 10075 10066 10057 10049 10042 10033 10026 10018 10014 10012 10007 10003 10000 9997 9995 9994 9993 9992 9993 9995 9998 10000 10000 10004 10008 10009 10016 10025 10034 10043 10048 10053 10059 10065 10071 10076 10081 10085 10090 10093
10088 10079 10069 10060 10053 10046 10037 10030 10023 10016 10011 10007 10002 9999 9995 9992 9989 9988 9987 9986 9985 9986 9988 9990 9991 9993 9996 10000 10002 10008 10016 10024 10032 10038 10044 10049 10053 10059 10063 10067 10071 10074 10078
10069 10062 10055 10047 10039 10033 10026 10018 10012 10006 10002 9998 9994 9991 9987 9984 9982 9981 9980 9979 9979 9979 9980 9982 9984 9986 9988 9993 9995 10001 10006 10014 10022 10027 10033 10038 10043 10047 10051 10054 10056 10059 10061
10051 10044 10038 10032 10027 10021 10015 10007 10001 9996 9992 9990 9986 9983 9980 9977 9975 9974 9973 9973 9973 9973 9974 9975 9977 9977 9980 9986 9990 9995 10000 10005 10011 10016 10020 10026 10031 10034 10036 10040 10042 10044 10047
10035 10029 10023 10018 10013 10009 10004 9998 9991 9986 9983 9980 9978 9975 9973 9971 9969 9968 9967 9966 9967 9967 9968 9969 9971 9972 9975 9978 9983 9987 9992 9996 10001 10006 10009 10013 10016 10019 10021 10022 10025 10027 10027
10022 10016 10010 10005 10002 9997 9992 9987 9982 9977 9973 9971 9969 9967 9965 9963 9962 9961 9960 9960 9960 9961 9962 9963 9964 9966 9969 9971 9975 9979 9983 9987 9990 9994 9997 9999 10001 10004 10007 10009 10009 10010 10011
10007 10003 9999 9993 9988 9985 9980 9976 9972 9968 9964 9961 9960 9958 9957 9955 9954 9954 9954 9954 9954 9955 9956 9957 9959 9961 9963 9965 9967 9970 9973 9977 9979 9982 9984 9986 9989 9991 9993 9995 9996 9996 9995
9990 9988 9985 9980 9975 9972 9969 9966 9962 9958 9955 9952 9950 9950 9949 9947 9947 9947 9947 9948 9948 9949 9950 9951 9953 9955 9956 9959 9961 9963 9965 9968 9971 9972 9975 9977 9979 9980 9981 9981 9981 9982 9982
9974 9970 9968 9965 9962 9959 9956 9953 9951 9948 9945 9943 9941 9940 9940 9939 9938 9939 9940 9941 9942 9943 9944 9945 9946 9948 9950 9952 9954 9956 9958 9959 9962 9964 9966 9967 9968 9969 9969 9970 9970 9969 9967